Year,Month,Day,Hour,Minute,Value (Times are PST for temperature in C)
2018,08,08,00,00,15.90
2018,08,08,00,01,15.90
2018,08,08,00,02,15.90
2018,08,08,00,03,15.90
2018,08,08,00,04,15.90
2018,08,08,00,05,15.90
2018,08,08,00,06,15.90
2018,08,08,00,07,15.90
2018,08,08,00,08,15.90
2018,08,08,00,09,15.90
2018,08,08,00,10,15.90
2018,08,08,00,11,15.90
2018,08,08,00,12,16.00
2018,08,08,00,13,16.10
2018,08,08,00,14,16.10
2018,08,08,00,15,16.10
2018,08,08,00,16,16.10
2018,08,08,00,17,16.10
2018,08,08,00,18,16.10
2018,08,08,00,19,16.10
2018,08,08,00,20,16.10
2018,08,08,00,21,16.10
2018,08,08,00,22,16.10
2018,08,08,00,23,16.10
2018,08,08,00,24,16.10
2018,08,08,00,25,16.10
2018,08,08,00,26,16.10
2018,08,08,00,27,16.20
2018,08,08,00,28,16.20
2018,08,08,00,29,16.20
2018,08,08,00,30,16.20
2018,08,08,00,31,16.30
2018,08,08,00,32,16.30
2018,08,08,00,33,16.30
2018,08,08,00,34,16.30
2018,08,08,00,35,16.40
2018,08,08,00,36,16.40
2018,08,08,00,37,16.40
2018,08,08,00,38,16.40
2018,08,08,00,39,16.40
2018,08,08,00,40,16.40
2018,08,08,00,41,16.40
2018,08,08,00,42,16.50
2018,08,08,00,43,16.60
2018,08,08,00,44,16.60
2018,08,08,00,45,16.60
2018,08,08,00,46,16.70
2018,08,08,00,47,16.70
2018,08,08,00,48,16.70
2018,08,08,00,49,16.70
2018,08,08,00,50,16.70
2018,08,08,00,51,16.70
2018,08,08,00,52,16.80
2018,08,08,00,53,16.80
2018,08,08,00,54,16.80
2018,08,08,00,55,16.90
2018,08,08,00,56,16.90
2018,08,08,00,57,16.90
2018,08,08,00,58,16.90
2018,08,08,00,59,16.90
2018,08,08,01,00,17.00
2018,08,08,01,01,17.00
2018,08,08,01,02,17.00
2018,08,08,01,03,17.00
2018,08,08,01,04,17.00
2018,08,08,01,05,17.00
2018,08,08,01,06,17.00
2018,08,08,01,07,17.10
2018,08,08,01,08,17.10
2018,08,08,01,09,17.10
2018,08,08,01,10,17.10
2018,08,08,01,11,17.10
2018,08,08,01,12,17.10
2018,08,08,01,13,17.10
2018,08,08,01,14,17.00
2018,08,08,01,15,17.00
2018,08,08,01,16,16.90
2018,08,08,01,17,16.90
2018,08,08,01,18,16.80
2018,08,08,01,19,16.80
2018,08,08,01,20,16.70
2018,08,08,01,21,16.70
2018,08,08,01,22,16.70
2018,08,08,01,23,16.70
2018,08,08,01,24,16.70
2018,08,08,01,25,16.70
2018,08,08,01,26,16.70
2018,08,08,01,27,16.70
2018,08,08,01,28,16.60
2018,08,08,01,29,16.50
2018,08,08,01,30,16.40
2018,08,08,01,31,16.40
2018,08,08,01,32,16.40
2018,08,08,01,33,16.40
2018,08,08,01,34,16.30
2018,08,08,01,35,16.30
2018,08,08,01,36,16.20
2018,08,08,01,37,16.20
2018,08,08,01,38,16.10
2018,08,08,01,39,16.10
2018,08,08,01,40,16.10
2018,08,08,01,41,16.10
2018,08,08,01,42,16.10
2018,08,08,01,43,16.10
2018,08,08,01,44,16.10
2018,08,08,01,45,16.10
2018,08,08,01,46,16.10
2018,08,08,01,47,16.10
2018,08,08,01,48,16.00
2018,08,08,01,49,15.90
2018,08,08,01,50,15.90
2018,08,08,01,51,15.90
2018,08,08,01,52,15.90
2018,08,08,01,53,15.80
2018,08,08,01,54,15.80
2018,08,08,01,55,15.80
2018,08,08,01,56,15.80
2018,08,08,01,57,15.80
2018,08,08,01,58,15.80
2018,08,08,01,59,15.80
2018,08,08,02,00,15.80
2018,08,08,02,01,15.70
2018,08,08,02,02,15.70
2018,08,08,02,03,15.70
2018,08,08,02,04,15.60
2018,08,08,02,05,15.50
2018,08,08,02,06,15.50
2018,08,08,02,07,15.50
2018,08,08,02,08,15.40
2018,08,08,02,09,15.40
2018,08,08,02,10,15.30
2018,08,08,02,11,15.30
2018,08,08,02,12,15.30
2018,08,08,02,13,15.20
2018,08,08,02,14,15.10
2018,08,08,02,15,15.00
2018,08,08,02,16,15.00
2018,08,08,02,17,14.90
2018,08,08,02,18,14.90
2018,08,08,02,19,14.80
2018,08,08,02,20,14.80
2018,08,08,02,21,14.80
2018,08,08,02,22,14.70
2018,08,08,02,23,14.60
2018,08,08,02,24,14.60
2018,08,08,02,25,14.60
2018,08,08,02,26,14.60
2018,08,08,02,27,14.60
2018,08,08,02,28,14.60
2018,08,08,02,29,14.60
2018,08,08,02,30,14.50
2018,08,08,02,31,14.50
2018,08,08,02,32,14.50
2018,08,08,02,33,14.50
2018,08,08,02,34,14.50
2018,08,08,02,35,14.50
2018,08,08,02,36,14.50
2018,08,08,02,37,14.50
2018,08,08,02,38,14.50
2018,08,08,02,39,14.50
2018,08,08,02,40,14.50
2018,08,08,02,41,14.50
2018,08,08,02,42,14.50
2018,08,08,02,43,14.50
2018,08,08,02,44,14.50
2018,08,08,02,45,14.50
2018,08,08,02,46,14.50
2018,08,08,02,47,14.50
2018,08,08,02,48,14.50
2018,08,08,02,49,14.50
2018,08,08,02,50,14.50
2018,08,08,02,51,14.40
2018,08,08,02,52,14.40
2018,08,08,02,53,14.40
2018,08,08,02,54,14.40
2018,08,08,02,55,14.40
2018,08,08,02,56,14.40
2018,08,08,02,57,14.40
2018,08,08,02,58,14.40
2018,08,08,02,59,14.40
2018,08,08,03,00,14.40
2018,08,08,03,01,14.40
2018,08,08,03,02,14.40
2018,08,08,03,03,14.40
2018,08,08,03,04,14.40
2018,08,08,03,05,14.40
2018,08,08,03,06,14.40
2018,08,08,03,07,14.40
2018,08,08,03,08,14.40
2018,08,08,03,09,14.40
2018,08,08,03,10,14.40
2018,08,08,03,11,14.40
2018,08,08,03,12,14.40
2018,08,08,03,13,14.40
2018,08,08,03,14,14.40
2018,08,08,03,15,14.40
2018,08,08,03,16,14.40
2018,08,08,03,17,14.40
2018,08,08,03,18,14.40
2018,08,08,03,19,14.40
2018,08,08,03,20,14.40
2018,08,08,03,21,14.40
2018,08,08,03,22,14.40
2018,08,08,03,23,14.40
2018,08,08,03,24,14.40
2018,08,08,03,25,14.40
2018,08,08,03,26,14.40
2018,08,08,03,27,14.40
2018,08,08,03,28,14.40
2018,08,08,03,29,14.40
2018,08,08,03,30,14.40
2018,08,08,03,31,14.40
2018,08,08,03,32,14.40
2018,08,08,03,33,14.40
2018,08,08,03,34,14.40
2018,08,08,03,35,14.50
2018,08,08,03,36,14.50
2018,08,08,03,37,14.50
2018,08,08,03,38,14.50
2018,08,08,03,39,14.50
2018,08,08,03,40,14.50
2018,08,08,03,41,14.50
2018,08,08,03,42,14.50
2018,08,08,03,43,14.50
2018,08,08,03,44,14.50
2018,08,08,03,45,14.50
2018,08,08,03,46,14.50
2018,08,08,03,47,14.50
2018,08,08,03,48,14.60
2018,08,08,03,49,14.60
2018,08,08,03,50,14.60
2018,08,08,03,51,14.60
2018,08,08,03,52,14.60
2018,08,08,03,53,14.60
2018,08,08,03,54,14.60
2018,08,08,03,55,14.60
2018,08,08,03,56,14.60
2018,08,08,03,57,14.60
2018,08,08,03,58,14.60
2018,08,08,03,59,14.60
2018,08,08,04,00,14.60
2018,08,08,04,01,14.60
2018,08,08,04,02,14.60
2018,08,08,04,03,14.60
2018,08,08,04,04,14.60
2018,08,08,04,05,14.60
2018,08,08,04,06,14.60
2018,08,08,04,07,14.60
2018,08,08,04,08,14.60
2018,08,08,04,09,14.60
2018,08,08,04,10,14.60
2018,08,08,04,11,14.60
2018,08,08,04,12,14.60
2018,08,08,04,13,14.60
2018,08,08,04,14,14.60
2018,08,08,04,15,14.60
2018,08,08,04,16,14.60
2018,08,08,04,17,14.60
2018,08,08,04,18,14.60
2018,08,08,04,19,14.60
2018,08,08,04,20,14.60
2018,08,08,04,21,14.60
2018,08,08,04,22,14.70
2018,08,08,04,23,14.70
2018,08,08,04,24,14.70
2018,08,08,04,25,14.70
2018,08,08,04,26,14.80
2018,08,08,04,27,14.80
2018,08,08,04,28,14.80
2018,08,08,04,29,14.70
2018,08,08,04,30,14.70
2018,08,08,04,31,14.60
2018,08,08,04,32,14.60
2018,08,08,04,33,14.60
2018,08,08,04,34,14.60
2018,08,08,04,35,14.50
2018,08,08,04,36,14.50
2018,08,08,04,37,14.50
2018,08,08,04,38,14.40
2018,08,08,04,39,14.40
2018,08,08,04,40,14.40
2018,08,08,04,41,14.40
2018,08,08,04,42,14.30
2018,08,08,04,43,14.30
2018,08,08,04,44,14.30
2018,08,08,04,45,14.30
2018,08,08,04,46,14.30
2018,08,08,04,47,14.30
2018,08,08,04,48,14.20
2018,08,08,04,49,14.20
2018,08,08,04,50,14.20
2018,08,08,04,51,14.20
2018,08,08,04,52,14.20
2018,08,08,04,53,14.20
2018,08,08,04,54,14.20
2018,08,08,04,55,14.20
2018,08,08,04,56,14.20
2018,08,08,04,57,14.20
2018,08,08,04,58,14.20
2018,08,08,04,59,14.20
2018,08,08,05,00,14.20
2018,08,08,05,01,14.20
2018,08,08,05,02,14.20
2018,08,08,05,03,14.20
2018,08,08,05,04,14.20
2018,08,08,05,05,14.20
2018,08,08,05,06,14.20
2018,08,08,05,07,14.20
2018,08,08,05,08,14.20
2018,08,08,05,09,14.20
2018,08,08,05,10,14.20
2018,08,08,05,11,14.20
2018,08,08,05,12,14.20
2018,08,08,05,13,14.20
2018,08,08,05,14,14.20
2018,08,08,05,15,14.20
2018,08,08,05,16,14.20
2018,08,08,05,17,14.20
2018,08,08,05,18,14.20
2018,08,08,05,19,14.20
2018,08,08,05,20,14.20
2018,08,08,05,21,14.20
2018,08,08,05,22,14.20
2018,08,08,05,23,14.20
2018,08,08,05,24,14.20
2018,08,08,05,25,14.20
2018,08,08,05,26,14.20
2018,08,08,05,27,14.20
2018,08,08,05,28,14.20
2018,08,08,05,29,14.20
2018,08,08,05,30,14.20
2018,08,08,05,31,14.20
2018,08,08,05,32,14.10
2018,08,08,05,33,14.10
2018,08,08,05,34,14.10
2018,08,08,05,35,14.10
2018,08,08,05,36,14.10
2018,08,08,05,37,14.10
2018,08,08,05,38,14.10
2018,08,08,05,39,14.10
2018,08,08,05,40,14.10
2018,08,08,05,41,14.10
2018,08,08,05,42,14.10
2018,08,08,05,43,14.10
2018,08,08,05,44,14.10
2018,08,08,05,45,14.10
2018,08,08,05,46,14.10
2018,08,08,05,47,14.10
2018,08,08,05,48,14.10
2018,08,08,05,49,14.10
2018,08,08,05,50,14.10
2018,08,08,05,51,14.10
2018,08,08,05,52,14.10
2018,08,08,05,53,14.10
2018,08,08,05,54,14.10
2018,08,08,05,55,14.10
2018,08,08,05,56,14.10
2018,08,08,05,57,14.10
2018,08,08,05,58,14.10
2018,08,08,05,59,14.10
2018,08,08,06,00,14.00
2018,08,08,06,01,14.00
2018,08,08,06,02,14.00
2018,08,08,06,03,14.00
2018,08,08,06,04,14.00
2018,08,08,06,05,14.00
2018,08,08,06,06,13.90
2018,08,08,06,07,13.90
2018,08,08,06,08,13.90
2018,08,08,06,09,13.90
2018,08,08,06,10,13.90
2018,08,08,06,11,13.90
2018,08,08,06,12,13.90
2018,08,08,06,13,13.90
2018,08,08,06,14,13.90
2018,08,08,06,15,13.90
2018,08,08,06,16,13.90
2018,08,08,06,17,13.90
2018,08,08,06,18,13.90
2018,08,08,06,19,13.90
2018,08,08,06,20,13.90
2018,08,08,06,21,14.00
2018,08,08,06,22,14.00
2018,08,08,06,23,14.00
2018,08,08,06,24,14.00
2018,08,08,06,25,14.00
2018,08,08,06,26,14.00
2018,08,08,06,27,14.00
2018,08,08,06,28,14.00
2018,08,08,06,29,14.00
2018,08,08,06,30,14.00
2018,08,08,06,31,14.10
2018,08,08,06,32,14.10
2018,08,08,06,33,14.10
2018,08,08,06,34,14.10
2018,08,08,06,35,14.10
2018,08,08,06,36,14.10
2018,08,08,06,37,14.20
2018,08,08,06,38,14.20
2018,08,08,06,39,14.20
2018,08,08,06,40,14.20
2018,08,08,06,41,14.20
2018,08,08,06,42,14.20
2018,08,08,06,43,14.20
2018,08,08,06,44,14.30
2018,08,08,06,45,14.30
2018,08,08,06,46,14.30
2018,08,08,06,47,14.30
2018,08,08,06,48,14.40
2018,08,08,06,49,14.40
2018,08,08,06,50,14.40
2018,08,08,06,51,14.40
2018,08,08,06,52,14.50
2018,08,08,06,53,14.50
2018,08,08,06,54,14.50
2018,08,08,06,55,14.50
2018,08,08,06,56,14.50
2018,08,08,06,57,14.60
2018,08,08,06,58,14.60
2018,08,08,06,59,14.60
2018,08,08,07,00,14.60
2018,08,08,07,01,14.70
2018,08,08,07,02,14.70
2018,08,08,07,03,14.70
2018,08,08,07,04,14.80
2018,08,08,07,05,14.80
2018,08,08,07,06,14.80
2018,08,08,07,07,14.80
2018,08,08,07,08,14.90
2018,08,08,07,09,14.90
2018,08,08,07,10,14.90
2018,08,08,07,11,15.00
2018,08,08,07,12,15.00
2018,08,08,07,13,15.10
2018,08,08,07,14,15.10
2018,08,08,07,15,15.20
2018,08,08,07,16,15.20
2018,08,08,07,17,15.30
2018,08,08,07,18,15.30
2018,08,08,07,19,15.30
2018,08,08,07,20,15.30
2018,08,08,07,21,15.40
2018,08,08,07,22,15.40
2018,08,08,07,23,15.50
2018,08,08,07,24,15.50
2018,08,08,07,25,15.60
2018,08,08,07,26,15.60
2018,08,08,07,27,15.60
2018,08,08,07,28,15.70
2018,08,08,07,29,15.70
2018,08,08,07,30,15.80
2018,08,08,07,31,15.80
2018,08,08,07,32,15.90
2018,08,08,07,33,16.10
2018,08,08,07,34,16.20
2018,08,08,07,35,16.30
2018,08,08,07,36,16.50
2018,08,08,07,37,16.60
2018,08,08,07,38,16.70
2018,08,08,07,39,16.80
2018,08,08,07,40,16.80
2018,08,08,07,41,16.90
2018,08,08,07,42,17.00
2018,08,08,07,43,17.00
2018,08,08,07,44,17.10
2018,08,08,07,45,17.20
2018,08,08,07,46,17.30
2018,08,08,07,47,17.40
2018,08,08,07,48,17.50
2018,08,08,07,49,17.70
2018,08,08,07,50,17.70
2018,08,08,07,51,17.80
2018,08,08,07,52,17.90
2018,08,08,07,53,17.90
2018,08,08,07,54,18.00
2018,08,08,07,55,18.10
2018,08,08,07,56,18.10
2018,08,08,07,57,18.10
2018,08,08,07,58,18.10
2018,08,08,07,59,18.10
2018,08,08,08,00,18.10
2018,08,08,08,01,18.10
2018,08,08,08,02,18.10
2018,08,08,08,03,18.10
2018,08,08,08,04,18.10
2018,08,08,08,05,18.20
2018,08,08,08,06,18.20
2018,08,08,08,07,18.30
2018,08,08,08,08,18.30
2018,08,08,08,09,18.40
2018,08,08,08,10,18.50
2018,08,08,08,11,18.50
2018,08,08,08,12,18.60
2018,08,08,08,13,18.60
2018,08,08,08,14,18.60
2018,08,08,08,15,18.60
2018,08,08,08,16,18.60
2018,08,08,08,17,18.60
2018,08,08,08,18,18.60
2018,08,08,08,19,18.60
2018,08,08,08,20,18.60
2018,08,08,08,21,18.60
2018,08,08,08,22,18.70
2018,08,08,08,23,18.70
2018,08,08,08,24,18.70
2018,08,08,08,25,18.70
2018,08,08,08,26,18.80
2018,08,08,08,27,18.90
2018,08,08,08,28,19.00
2018,08,08,08,29,19.10
2018,08,08,08,30,19.20
2018,08,08,08,31,19.30
2018,08,08,08,32,19.40
2018,08,08,08,33,19.40
2018,08,08,08,34,19.50
2018,08,08,08,35,19.60
2018,08,08,08,36,19.60
2018,08,08,08,37,19.70
2018,08,08,08,38,19.60
2018,08,08,08,39,19.60
2018,08,08,08,40,19.40
2018,08,08,08,41,19.10
2018,08,08,08,42,18.90
2018,08,08,08,43,18.60
2018,08,08,08,44,18.40
2018,08,08,08,45,18.20
2018,08,08,08,46,17.90
2018,08,08,08,47,17.80
2018,08,08,08,48,17.70
2018,08,08,08,49,17.70
2018,08,08,08,50,17.70
2018,08,08,08,51,17.80
2018,08,08,08,52,17.80
2018,08,08,08,53,17.70
2018,08,08,08,54,17.80
2018,08,08,08,55,17.80
2018,08,08,08,56,17.90
2018,08,08,08,57,18.00
2018,08,08,08,58,18.10
2018,08,08,08,59,18.20
2018,08,08,09,00,18.20
2018,08,08,09,01,18.30
2018,08,08,09,02,18.30
2018,08,08,09,03,18.40
2018,08,08,09,04,18.50
2018,08,08,09,05,18.50
2018,08,08,09,06,18.60
2018,08,08,09,07,18.80
2018,08,08,09,08,18.90
2018,08,08,09,09,18.90
2018,08,08,09,10,19.00
2018,08,08,09,11,19.10
2018,08,08,09,12,19.10
2018,08,08,09,13,19.20
2018,08,08,09,14,19.40
2018,08,08,09,15,19.50
2018,08,08,09,16,19.60
2018,08,08,09,17,19.70
2018,08,08,09,18,19.80
2018,08,08,09,19,19.90
2018,08,08,09,20,20.00
2018,08,08,09,21,20.10
2018,08,08,09,22,20.20
2018,08,08,09,23,20.20
2018,08,08,09,24,20.30
2018,08,08,09,25,20.40
2018,08,08,09,26,20.50
2018,08,08,09,27,20.60
2018,08,08,09,28,20.60
2018,08,08,09,29,20.60
2018,08,08,09,30,20.70
2018,08,08,09,31,20.80
2018,08,08,09,32,20.90
2018,08,08,09,33,21.00
2018,08,08,09,34,21.10
2018,08,08,09,35,21.30
2018,08,08,09,36,21.40
2018,08,08,09,37,21.60
2018,08,08,09,38,21.70
2018,08,08,09,39,21.90
2018,08,08,09,40,22.10
2018,08,08,09,41,22.30
2018,08,08,09,42,22.40
2018,08,08,09,43,22.50
2018,08,08,09,44,22.60
2018,08,08,09,45,22.70
2018,08,08,09,46,22.80
2018,08,08,09,47,23.00
2018,08,08,09,48,23.20
2018,08,08,09,49,23.30
2018,08,08,09,50,23.30
2018,08,08,09,51,23.30
2018,08,08,09,52,23.30
2018,08,08,09,53,23.30
2018,08,08,09,54,23.30
2018,08,08,09,55,23.30
2018,08,08,09,56,23.40
2018,08,08,09,57,23.50
2018,08,08,09,58,23.40
2018,08,08,09,59,23.40
2018,08,08,10,00,23.30
2018,08,08,10,01,23.20
2018,08,08,10,02,23.10
2018,08,08,10,03,23.10
2018,08,08,10,04,23.20
2018,08,08,10,05,23.30
2018,08,08,10,06,23.40
2018,08,08,10,07,23.70
2018,08,08,10,08,23.70
2018,08,08,10,09,23.80
2018,08,08,10,10,23.90
2018,08,08,10,11,24.00
2018,08,08,10,12,24.10
2018,08,08,10,13,24.10
2018,08,08,10,14,24.00
2018,08,08,10,15,23.90
2018,08,08,10,16,23.70
2018,08,08,10,17,23.60
2018,08,08,10,18,23.50
2018,08,08,10,19,23.40
2018,08,08,10,20,23.40
2018,08,08,10,21,23.30
2018,08,08,10,22,23.20
2018,08,08,10,23,23.20
2018,08,08,10,24,23.10
2018,08,08,10,25,23.10
2018,08,08,10,26,23.00
2018,08,08,10,27,22.90
2018,08,08,10,28,22.80
2018,08,08,10,29,22.80
2018,08,08,10,30,22.80
2018,08,08,10,31,22.80
2018,08,08,10,32,22.70
2018,08,08,10,33,22.60
2018,08,08,10,34,22.70
2018,08,08,10,35,22.70
2018,08,08,10,36,22.70
2018,08,08,10,37,22.70
2018,08,08,10,38,22.70
2018,08,08,10,39,22.70
2018,08,08,10,40,22.70
2018,08,08,10,41,22.70
2018,08,08,10,42,22.70
2018,08,08,10,43,22.70
2018,08,08,10,44,22.80
2018,08,08,10,45,22.80
2018,08,08,10,46,22.80
2018,08,08,10,47,22.80
2018,08,08,10,48,22.80
2018,08,08,10,49,22.80
2018,08,08,10,50,22.70
2018,08,08,10,51,22.60
2018,08,08,10,52,22.70
2018,08,08,10,53,22.80
2018,08,08,10,54,22.80
2018,08,08,10,55,22.90
2018,08,08,10,56,23.00
2018,08,08,10,57,23.10
2018,08,08,10,58,23.20
2018,08,08,10,59,23.20
2018,08,08,11,00,23.30
2018,08,08,11,01,23.30
2018,08,08,11,02,23.30
2018,08,08,11,03,23.30
2018,08,08,11,04,23.50
2018,08,08,11,05,23.60
2018,08,08,11,06,23.60
2018,08,08,11,07,23.70
2018,08,08,11,08,23.80
2018,08,08,11,09,23.90
2018,08,08,11,10,23.90
2018,08,08,11,11,24.10
2018,08,08,11,12,24.10
2018,08,08,11,13,24.10
2018,08,08,11,14,24.10
2018,08,08,11,15,24.10
2018,08,08,11,16,24.20
2018,08,08,11,17,24.20
2018,08,08,11,18,24.20
2018,08,08,11,19,24.20
2018,08,08,11,20,24.20
2018,08,08,11,21,24.10
2018,08,08,11,22,24.00
2018,08,08,11,23,23.90
2018,08,08,11,24,23.80
2018,08,08,11,25,23.80
2018,08,08,11,26,23.80
2018,08,08,11,27,23.80
2018,08,08,11,28,23.80
2018,08,08,11,29,23.80
2018,08,08,11,30,23.70
2018,08,08,11,31,23.70
2018,08,08,11,32,23.70
2018,08,08,11,33,23.70
2018,08,08,11,34,23.80
2018,08,08,11,35,23.80
2018,08,08,11,36,23.80
2018,08,08,11,37,23.70
2018,08,08,11,38,23.70
2018,08,08,11,39,23.70
2018,08,08,11,40,23.60
2018,08,08,11,41,23.50
2018,08,08,11,42,23.30
2018,08,08,11,43,23.30
2018,08,08,11,44,23.30
2018,08,08,11,45,23.20
2018,08,08,11,46,23.20
2018,08,08,11,47,23.10
2018,08,08,11,48,23.10
2018,08,08,11,49,23.20
2018,08,08,11,50,23.30
2018,08,08,11,51,23.30
2018,08,08,11,52,23.50
2018,08,08,11,53,23.60
2018,08,08,11,54,23.70
2018,08,08,11,55,23.80
2018,08,08,11,56,24.00
2018,08,08,11,57,24.10
2018,08,08,11,58,24.20
2018,08,08,11,59,24.40
2018,08,08,12,00,24.50
2018,08,08,12,01,24.50
2018,08,08,12,02,24.60
2018,08,08,12,03,24.70
2018,08,08,12,04,24.70
2018,08,08,12,05,24.70
2018,08,08,12,06,24.80
2018,08,08,12,07,24.70
2018,08,08,12,08,24.70
2018,08,08,12,09,24.60
2018,08,08,12,10,24.50
2018,08,08,12,11,24.40
2018,08,08,12,12,24.40
2018,08,08,12,13,24.30
2018,08,08,12,14,24.10
2018,08,08,12,15,23.90
2018,08,08,12,16,23.90
2018,08,08,12,17,23.90
2018,08,08,12,18,24.00
2018,08,08,12,19,24.10
2018,08,08,12,20,24.20
2018,08,08,12,21,24.20
2018,08,08,12,22,24.30
2018,08,08,12,23,24.30
2018,08,08,12,24,24.40
2018,08,08,12,25,24.50
2018,08,08,12,26,24.60
2018,08,08,12,27,24.70
2018,08,08,12,28,24.60
2018,08,08,12,29,24.50
2018,08,08,12,30,24.40
2018,08,08,12,31,24.30
2018,08,08,12,32,24.10
2018,08,08,12,33,24.10
2018,08,08,12,34,24.10
2018,08,08,12,35,24.10
2018,08,08,12,36,24.10
2018,08,08,12,37,24.30
2018,08,08,12,38,24.40
2018,08,08,12,39,24.50
2018,08,08,12,40,24.70
2018,08,08,12,41,24.80
2018,08,08,12,42,24.90
2018,08,08,12,43,24.90
2018,08,08,12,44,24.70
2018,08,08,12,45,24.70
2018,08,08,12,46,24.70
2018,08,08,12,47,24.60
2018,08,08,12,48,24.60
2018,08,08,12,49,24.50
2018,08,08,12,50,24.50
2018,08,08,12,51,24.40
2018,08,08,12,52,24.30
2018,08,08,12,53,24.30
2018,08,08,12,54,24.30
2018,08,08,12,55,24.30
2018,08,08,12,56,24.30
2018,08,08,12,57,24.40
2018,08,08,12,58,24.50
2018,08,08,12,59,24.60
2018,08,08,13,00,24.70
2018,08,08,13,01,24.80
2018,08,08,13,02,25.00
2018,08,08,13,03,25.20
2018,08,08,13,04,25.40
2018,08,08,13,05,25.50
2018,08,08,13,06,25.60
2018,08,08,13,07,25.70
2018,08,08,13,08,25.70
2018,08,08,13,09,25.70
2018,08,08,13,10,25.70
2018,08,08,13,11,25.70
2018,08,08,13,12,25.60
2018,08,08,13,13,25.60
2018,08,08,13,14,25.60
2018,08,08,13,15,25.50
2018,08,08,13,16,25.40
2018,08,08,13,17,25.30
2018,08,08,13,18,25.20
2018,08,08,13,19,25.10
2018,08,08,13,20,25.00
2018,08,08,13,21,25.00
2018,08,08,13,22,25.00
2018,08,08,13,23,25.00
2018,08,08,13,24,25.00
2018,08,08,13,25,25.00
2018,08,08,13,26,25.00
2018,08,08,13,27,25.10
2018,08,08,13,28,25.20
2018,08,08,13,29,25.20
2018,08,08,13,30,25.20
2018,08,08,13,31,25.20
2018,08,08,13,32,25.30
2018,08,08,13,33,25.30
2018,08,08,13,34,25.30
2018,08,08,13,35,25.40
2018,08,08,13,36,25.50
2018,08,08,13,37,25.60
2018,08,08,13,38,25.60
2018,08,08,13,39,25.70
2018,08,08,13,40,25.80
2018,08,08,13,41,25.80
2018,08,08,13,42,25.90
2018,08,08,13,43,26.00
2018,08,08,13,44,26.10
2018,08,08,13,45,26.20
2018,08,08,13,46,26.20
2018,08,08,13,47,26.30
2018,08,08,13,48,26.50
2018,08,08,13,49,26.60
2018,08,08,13,50,26.70
2018,08,08,13,51,26.80
2018,08,08,13,52,27.00
2018,08,08,13,53,27.10
2018,08,08,13,54,27.10
2018,08,08,13,55,27.00
2018,08,08,13,56,26.90
2018,08,08,13,57,26.90
2018,08,08,13,58,26.90
2018,08,08,13,59,26.90
2018,08,08,14,00,26.90
2018,08,08,14,01,26.80
2018,08,08,14,02,26.80
2018,08,08,14,03,26.80
2018,08,08,14,04,26.90
2018,08,08,14,05,26.90
2018,08,08,14,06,26.90
2018,08,08,14,07,26.90
2018,08,08,14,08,26.90
2018,08,08,14,09,26.80
2018,08,08,14,10,26.80
2018,08,08,14,11,26.80
2018,08,08,14,12,26.90
2018,08,08,14,13,26.90
2018,08,08,14,14,27.00
2018,08,08,14,15,27.10
2018,08,08,14,16,27.30
2018,08,08,14,17,27.30
2018,08,08,14,18,27.30
2018,08,08,14,19,27.30
2018,08,08,14,20,27.30
2018,08,08,14,21,27.30
2018,08,08,14,22,27.30
2018,08,08,14,23,27.30
2018,08,08,14,24,27.30
2018,08,08,14,25,27.30
2018,08,08,14,26,27.40
2018,08,08,14,27,27.40
2018,08,08,14,28,27.60
2018,08,08,14,29,27.60
2018,08,08,14,30,27.70
2018,08,08,14,31,27.80
2018,08,08,14,32,27.80
2018,08,08,14,33,27.80
2018,08,08,14,34,27.80
2018,08,08,14,35,27.70
2018,08,08,14,36,27.70
2018,08,08,14,37,27.80
2018,08,08,14,38,27.80
2018,08,08,14,39,27.80
2018,08,08,14,40,27.80
2018,08,08,14,41,27.70
2018,08,08,14,42,27.60
2018,08,08,14,43,27.60
2018,08,08,14,44,27.60
2018,08,08,14,45,27.50
2018,08,08,14,46,27.40
2018,08,08,14,47,27.40
2018,08,08,14,48,27.40
2018,08,08,14,49,27.40
2018,08,08,14,50,27.50
2018,08,08,14,51,27.60
2018,08,08,14,52,27.70
2018,08,08,14,53,27.90
2018,08,08,14,54,28.00
2018,08,08,14,55,28.00
2018,08,08,14,56,28.10
2018,08,08,14,57,28.00
2018,08,08,14,58,28.00
2018,08,08,14,59,28.00
2018,08,08,15,00,28.00
2018,08,08,15,01,28.00
2018,08,08,15,02,28.00
2018,08,08,15,03,28.00
2018,08,08,15,04,28.10
2018,08,08,15,05,28.10
2018,08,08,15,06,28.20
2018,08,08,15,07,28.20
2018,08,08,15,08,28.30
2018,08,08,15,09,28.30
2018,08,08,15,10,28.40
2018,08,08,15,11,28.40
2018,08,08,15,12,28.40
2018,08,08,15,13,28.40
2018,08,08,15,14,28.40
2018,08,08,15,15,28.40
2018,08,08,15,16,28.40
2018,08,08,15,17,28.30
2018,08,08,15,18,28.20
2018,08,08,15,19,28.10
2018,08,08,15,20,27.90
2018,08,08,15,21,27.80
2018,08,08,15,22,27.70
2018,08,08,15,23,27.60
2018,08,08,15,24,27.60
2018,08,08,15,25,27.60
2018,08,08,15,26,27.60
2018,08,08,15,27,27.60
2018,08,08,15,28,27.60
2018,08,08,15,29,27.60
2018,08,08,15,30,27.60
2018,08,08,15,31,27.60
2018,08,08,15,32,27.60
2018,08,08,15,33,27.60
2018,08,08,15,34,27.70
2018,08,08,15,35,27.70
2018,08,08,15,36,27.70
2018,08,08,15,37,27.70
2018,08,08,15,38,27.70
2018,08,08,15,39,27.80
2018,08,08,15,40,27.80
2018,08,08,15,41,27.80
2018,08,08,15,42,27.90
2018,08,08,15,43,27.90
2018,08,08,15,44,27.90
2018,08,08,15,45,27.80
2018,08,08,15,46,27.80
2018,08,08,15,47,27.70
2018,08,08,15,48,27.70
2018,08,08,15,49,27.70
2018,08,08,15,50,27.70
2018,08,08,15,51,27.70
2018,08,08,15,52,27.70
2018,08,08,15,53,27.70
2018,08,08,15,54,27.60
2018,08,08,15,55,27.60
2018,08,08,15,56,27.60
2018,08,08,15,57,27.40
2018,08,08,15,58,27.40
2018,08,08,15,59,27.40
2018,08,08,16,00,27.30
2018,08,08,16,01,27.30
2018,08,08,16,02,27.30
2018,08,08,16,03,27.20
2018,08,08,16,04,27.20
2018,08,08,16,05,27.30
2018,08,08,16,06,27.30
2018,08,08,16,07,27.30
2018,08,08,16,08,27.40
2018,08,08,16,09,27.40
2018,08,08,16,10,27.50
2018,08,08,16,11,27.60
2018,08,08,16,12,27.60
2018,08,08,16,13,27.70
2018,08,08,16,14,27.70
2018,08,08,16,15,27.70
2018,08,08,16,16,27.70
2018,08,08,16,17,27.80
2018,08,08,16,18,27.90
2018,08,08,16,19,27.90
2018,08,08,16,20,28.00
2018,08,08,16,21,28.00
2018,08,08,16,22,28.00
2018,08,08,16,23,28.10
2018,08,08,16,24,28.10
2018,08,08,16,25,28.20
2018,08,08,16,26,28.20
2018,08,08,16,27,28.20
2018,08,08,16,28,28.20
2018,08,08,16,29,28.30
2018,08,08,16,30,28.30
2018,08,08,16,31,28.40
2018,08,08,16,32,28.40
2018,08,08,16,33,28.60
2018,08,08,16,34,28.60
2018,08,08,16,35,28.60
2018,08,08,16,36,28.70
2018,08,08,16,37,28.70
2018,08,08,16,38,28.70
2018,08,08,16,39,28.70
2018,08,08,16,40,28.60
2018,08,08,16,41,28.60
2018,08,08,16,42,28.60
2018,08,08,16,43,28.50
2018,08,08,16,44,28.40
2018,08,08,16,45,28.30
2018,08,08,16,46,28.30
2018,08,08,16,47,28.20
2018,08,08,16,48,28.20
2018,08,08,16,49,28.20
2018,08,08,16,50,28.20
2018,08,08,16,51,28.20
2018,08,08,16,52,28.20
2018,08,08,16,53,28.10
2018,08,08,16,54,28.10
2018,08,08,16,55,28.00
2018,08,08,16,56,27.90
2018,08,08,16,57,27.80
2018,08,08,16,58,27.70
2018,08,08,16,59,27.70
2018,08,08,17,00,27.70
2018,08,08,17,01,27.70
2018,08,08,17,02,27.70
2018,08,08,17,03,27.70
2018,08,08,17,04,27.70
2018,08,08,17,05,27.70
2018,08,08,17,06,27.70
2018,08,08,17,07,27.70
2018,08,08,17,08,27.80
2018,08,08,17,09,27.80
2018,08,08,17,10,27.80
2018,08,08,17,11,27.80
2018,08,08,17,12,27.90
2018,08,08,17,13,27.90
2018,08,08,17,14,27.90
2018,08,08,17,15,28.00
2018,08,08,17,16,28.00
2018,08,08,17,17,28.00
2018,08,08,17,18,28.00
2018,08,08,17,19,28.00